Tampa, FL

7:31 PM EST on February 18, 2018 (GMT -0500)
Tampa International

Weather History for KTPA - November, 2011

Change the Weather History Date:

Sunday, November 6, 2011

  Actual Average Record
Temperature  
Mean Temperature 70 °F 71 °F  
Max Temperature 80 °F 80 °F 90 °F (2015)
Min Temperature 59 °F 62 °F 40 °F (1950)
Degree Days  
Heating Degree Days 0 1  
Month to date heating degree days 1 4  
Since 1 July heating degree days 2 8  
Cooling Degree Days 5 7  
Month to date cooling degree days 21 44  
Year to date cooling degree days 3711 3410  
Growing Degree Days 19 (Base 50)    
Moisture  
Dew Point 58 °F    
Average Humidity 72    
Maximum Humidity 90    
Minimum Humidity 54    
Precipitation  
Precipitation T in 0.06 in 0.88 in (1903)
Month to date precipitation 0.03 0.31  
Year to date precipitation 51.82 42.59  
Sea Level Pressure  
Sea Level Pressure 30.16 in    
Wind  
Wind Speed 9 mph (NNE)    
Max Wind Speed 18 mph    
Max Gust Speed 25 mph    
Visibility 10 miles    
Events      
T = Trace of Precipitation, MM = Missing Value Source: NWS Daily Summary

Daily Weather History Graph

Daily Weather History Graph

Search for Another Location

Airport or City:

Trip Planner

Search our weather history database for the weather conditions in past years. The results will help you decide how hot, cold, wet, or windy it might be!

Date:

Astronomy

Nov. 06, 2011 Rise Set
Actual Time 6:44 AM EST 5:42 PM EST
Civil Twilight 6:20 AM EST 6:06 PM EST
Nautical Twilight 5:52 AM EST 6:34 PM EST
Astronomical Twilight 5:24 AM EST 7:02 PM EST
Moon 3:11 PM EST (11/6) 3:06 AM EST (11/6)
Length of Visible Light 11h 46m
Length of Day
10h 57m
Waxing Gibbous, 85% of the Moon is Illuminated
Nov 6
Waxing Gibbous
Nov 10
Full
Nov 18
Last Quarter
Nov 25
New
Dec 2
First Quarter

Hourly Weather History & Observations

Time (EST) Temp. Dew Point Humidity Pressure Visibility Wind Dir Wind Speed Gust Speed Precip Events Conditions
12:53 AM 60.1 °F 53.1 °F 78% 30.13 in 10.0 mi North 6.9 mph 17.3 mph N/A   Mostly Cloudy
1:53 AM 61.0 °F 54.0 °F 78% 30.12 in 10.0 mi North 11.5 mph - N/A   Overcast
1:53 AM 59.0 °F 55.0 °F 87% 30.12 in 10.0 mi North 6.9 mph - 0.00 in   Mostly Cloudy
2:53 AM 60.1 °F 55.0 °F 83% 30.11 in 10.0 mi North 5.8 mph - N/A   Mostly Cloudy
3:53 AM 60.1 °F 55.0 °F 83% 30.12 in 10.0 mi NNE 8.1 mph - N/A   Scattered Clouds
4:53 AM 59.0 °F 55.0 °F 87% 30.12 in 10.0 mi NNE 9.2 mph - N/A   Partly Cloudy
5:53 AM 59.0 °F 55.0 °F 87% 30.14 in 10.0 mi NNE 8.1 mph - N/A   Clear
6:53 AM 59.0 °F 55.9 °F 90% 30.15 in 10.0 mi NNE 11.5 mph 19.6 mph N/A   Scattered Clouds
7:32 AM 59.0 °F 55.4 °F 88% 30.16 in 10.0 mi NNE 10.4 mph 16.1 mph N/A   Mostly Cloudy
7:53 AM 60.1 °F 57.0 °F 90% 30.17 in 10.0 mi NNE 9.2 mph - N/A   Mostly Cloudy
8:11 AM 60.8 °F 57.2 °F 88% 30.18 in 10.0 mi NE 8.1 mph - N/A   Scattered Clouds
8:53 AM 63.0 °F 57.9 °F 84% 30.19 in 10.0 mi NNE 8.1 mph 17.3 mph N/A   Partly Cloudy
9:53 AM 68.0 °F 57.9 °F 70% 30.20 in 10.0 mi NNE 8.1 mph - N/A   Partly Cloudy
10:53 AM 71.1 °F 59.0 °F 66% 30.20 in 10.0 mi NNE 6.9 mph - N/A   Scattered Clouds
11:53 AM 73.9 °F 59.0 °F 59% 30.19 in 10.0 mi NNE 11.5 mph - N/A   Mostly Cloudy
12:53 PM 75.9 °F 60.1 °F 58% 30.15 in 10.0 mi Variable 5.8 mph - N/A   Mostly Cloudy
1:53 PM 79.0 °F 60.1 °F 52% 30.13 in 10.0 mi NE 10.4 mph 18.4 mph N/A   Scattered Clouds
2:53 PM 78.1 °F 60.1 °F 54% 30.13 in 10.0 mi NE 11.5 mph 21.9 mph N/A   Mostly Cloudy
3:53 PM 75.9 °F 61.0 °F 60% 30.14 in 10.0 mi NE 12.7 mph 20.7 mph N/A   Overcast
4:53 PM 73.9 °F 61.0 °F 64% 30.14 in 10.0 mi NNE 13.8 mph 19.6 mph N/A   Mostly Cloudy
5:53 PM 71.1 °F 61.0 °F 70% 30.15 in 10.0 mi NE 6.9 mph 17.3 mph N/A   Scattered Clouds
6:53 PM 70.0 °F 61.0 °F 73% 30.17 in 10.0 mi NNE 11.5 mph 25.3 mph N/A   Mostly Cloudy
7:53 PM 68.0 °F 62.1 °F 81% 30.19 in 10.0 mi NE 9.2 mph - N/A   Partly Cloudy
8:53 PM 68.0 °F 62.1 °F 81% 30.19 in 10.0 mi NE 6.9 mph 16.1 mph N/A   Partly Cloudy
9:53 PM 66.9 °F 62.1 °F 84% 30.19 in 10.0 mi NNE 9.2 mph - N/A   Partly Cloudy
10:53 PM 66.0 °F 61.0 °F 84% 30.19 in 10.0 mi NE 5.8 mph - N/A   Clear